Flag for New Zealand Weather past 2 weeks in Hamilton, New Zealand

Now
54 °F

Cool.


Feels Like: 48 °F
Forecast: 35 / 54 °F
Wind: 22 mph from Southwest

Location: Auckland Airport

Current Time: Jul 29, 2015 at 5:11:20 PM

Latest Report: Jul 29, 2015 at 4:30 PM


Visibility: N/A

Pressure: 29.92 "Hg

Humidity: 77%

Dew point: 46 °F

Location of HamiltonLocation

Historic Weather in Hamilton — Graph

°F

Hamilton temperature yesterday

Maximum temperature yesterday: 61 °F (at 12:30 PM)
Minimum temperature yesterday: 48 °F (at 9:30 PM)
Average temperature yesterday: 54 °F

Past Weeks' High & Low Weather Summary

 TemperatureHumidityPressure
High61 °F (Jul 18, 3:00 PM)100% (Jul 15, 4:00 PM)30.60 "Hg (Jul 15, 4:00 PM)
Low39 °F (Jul 21, 8:00 AM)59% (Jul 21, 12:00 PM)29.18 "Hg (Jul 18, 6:00 PM)
Average52 °F87%30.10 "Hg
* Reported Jul 14 3:00 PM — Jul 29 3:30 PM, Hamilton, Weather by CustomWeather, © 2015

Note: Actual official high and low records may vary slightly from our data, if they occured in-between our weather recording intervals... More about our weather records

Advertising

Hamilton weather history for previous 24 hours

 ConditionsComfort  
Time TempWeatherWind HumidityBarometerVisibility
3:30 PM
Wed, Jul 29
52 °FSprinkles. Passing clouds.20 mph88%29.92 "HgN/A
3:00 PM54 °FSprinkles. Broken clouds.20 mph88%29.92 "HgN/A
2:30 PM50 °FRain. Broken clouds.25 mph94%29.92 "Hg3 mi
2:00 PM55 °FScattered clouds.23 mph77%29.89 "HgN/A
1:30 PM54 °FMostly cloudy.21 mph82%29.89 "HgN/A
1:00 PM54 °FSprinkles. Partly sunny.20 mph82%29.89 "Hg6 mi
12:30 PM55 °FSprinkles. Scattered clouds.25 mph77%29.89 "HgN/A
12:00 PM55 °FSprinkles. Broken clouds.24 mph77%29.89 "HgN/A
11:30 AM55 °FPassing clouds.25 mph77%29.89 "HgN/A
11:00 AM55 °FPartly sunny.24 mph77%29.92 "HgN/A
10:30 AM55 °FSprinkles. Broken clouds.21 mph72%29.89 "HgN/A
10:00 AM55 °FScattered clouds.22 mph77%29.89 "HgN/A
9:30 AM55 °FPartly sunny.20 mph72%29.89 "HgN/A
8:30 AM50 °FSprinkles. Broken clouds.23 mph82%29.86 "Hg4 mi
8:00 AM54 °FBroken clouds.20 mph77%29.86 "HgN/A
7:30 AM54 °FSprinkles. Scattered clouds.21 mph77%29.83 "HgN/A
7:00 AM52 °FBroken clouds.21 mph77%29.83 "HgN/A
6:30 AM52 °FBroken clouds.20 mph88%29.80 "HgN/A
6:00 AM54 °FPassing clouds.21 mph77%29.80 "HgN/A
5:30 AM52 °FSprinkles. Partly cloudy.14 mph88%29.80 "HgN/A
5:00 AM52 °FPassing clouds.17 mph82%29.77 "HgN/A
4:30 AM52 °FSprinkles. Partly cloudy.18 mph82%29.77 "HgN/A
4:00 AM52 °FPartly cloudy.18 mph82%29.77 "HgN/A
3:30 AM52 °FLight rain. Partly cloudy.18 mph82%29.77 "HgN/A
3:00 AM50 °FRain. Passing clouds.20 mph88%29.77 "Hg2 mi
2:30 AM50 °FLight rain. Passing clouds.16 mph88%29.80 "HgN/A
2:00 AM52 °FPartly cloudy.16 mph77%29.77 "HgN/A
1:30 AM50 °FPassing clouds.12 mph82%29.77 "HgN/A
1:00 AM50 °FLight rain. Overcast.13 mph82%29.80 "HgN/A
12:30 AM50 °FSprinkles. Passing clouds.20 mph94%29.80 "Hg5 mi
12:00 AM50 °FSprinkles. Passing clouds.14 mph88%29.80 "HgN/A
11:30 PM
Tue, Jul 28
50 °FLight rain. Passing clouds.10 mph88%29.80 "HgN/A
11:00 PM50 °FLight rain. Partly cloudy.18 mph94%29.80 "Hg6 mi
10:30 PM48 °FPassing clouds.7 mph94%29.77 "HgN/A
10:00 PM50 °FPassing clouds.9 mph88%29.77 "HgN/A
9:30 PM48 °FCool.5 mph94%29.80 "HgN/A
9:00 PM50 °FPassing clouds.7 mph94%29.77 "HgN/A
8:30 PM50 °FHeavy rain. Partly cloudy.14 mph94%29.80 "Hg2 mi
8:00 PM52 °FSprinkles. Partly cloudy.8 mph94%29.77 "Hg5 mi
7:30 PM52 °FSprinkles. Partly cloudy.8 mph88%29.77 "HgN/A
7:00 PM52 °FSprinkles. Partly cloudy.9 mph94%29.77 "HgN/A
6:30 PM52 °FLight rain. Passing clouds.8 mph88%29.77 "HgN/A
6:00 PM52 °FSprinkles. Passing clouds.15 mph82%29.77 "Hg6 mi
5:30 PM54 °FSprinkles. Passing clouds.12 mph82%29.77 "HgN/A
5:00 PM54 °FLight rain. Passing clouds.13 mph88%29.77 "HgN/A
Weather by CustomWeather, © 2015

See weather overviewHow to use our weather pages